Date,TemperatureHighF,TemperatureAvgF,TemperatureLowF,DewpointHighF,DewpointAvgF,DewpointLowF,HumidityHigh,HumidityAvg,HumidityLow,PressureMaxIn,PressureMinIn,WindSpeedMaxMPH,WindSpeedAvgMPH,GustSpeedMaxMPH,PrecipitationSumIn
2014-1-1,39.9,12.2,19.1,25.0,-57.0,-99.9,89,21,46,26.58,26.38,7,-644,10,0.00
2014-1-2,41.8,10.2,30.3,40.0,-63.0,-99.9,95,25,86,26.38,25.97,4,-725,20,0.02
2014-1-3,16.7,4.0,6.0,5.0,-63.4,-99.9,81,25,58,26.57,26.04,30,-641,39,0.00
2014-1-4,35.6,10.4,14.3,22.0,-61.7,-99.9,84,16,27,26.58,26.48,10,-651,13,0.00
2014-1-5,44.6,12.7,37.0,44.0,-57.7,-99.9,99,29,96,26.47,26.05,12,-700,16,0.00
2014-1-6,18.3,4.9,1.8,14.0,-60.1,-99.9,84,27,56,26.25,25.99,29,-616,38,0.00
2014-1-7,14.4,2.0,-5.6,-5.0,-67.3,-99.9,58,18,37,26.54,26.23,19,-631,23,0.00
2014-1-8,42.3,13.5,9.9,15.0,-54.9,-99.9,82,17,28,26.69,26.53,11,-592,14,0.00
2014-1-9,40.2,9.8,20.0,23.0,-67.8,-99.9,87,13,30,26.72,26.65,6,-715,10,0.00
2014-1-10,46.5,13.4,36.0,46.0,-55.1,-99.9,98,31,97,26.66,26.38,3,-683,7,0.10
2014-1-11,50.2,4.1,47.4,45.0,-87.9,-99.9,84,7,74,26.37,25.98,13,-915,13,0.00
2014-1-12,47.7,15.5,34.3,25.0,-55.7,-99.9,65,16,29,26.45,26.11,11,-629,20,0.00
2014-1-13,44.6,13.2,27.9,34.0,-56.9,-99.9,92,23,48,26.42,26.22,10,-669,12,0.00
2014-1-14,42.6,12.7,38.0,37.0,-59.6,-99.9,92,20,43,26.27,26.10,22,-681,30,0.00
2014-1-15,31.3,10.9,27.6,28.0,-53.1,-99.9,91,31,73,26.25,26.16,17,-621,22,0.00
2014-1-16,35.6,10.8,15.7,11.0,-59.2,-99.9,77,16,23,26.23,26.14,10,-619,14,0.00
2014-1-17,41.6,12.0,20.8,24.0,-61.3,-99.9,87,16,28,26.20,26.08,13,-668,27,0.00
2014-1-18,29.3,8.2,11.4,12.0,-57.3,-99.9,68,23,41,26.23,26.11,16,-602,22,0.00
2014-1-19,37.8,13.2,29.7,25.0,-50.8,-99.9,81,26,48,26.25,26.13,12,-593,21,0.00
2014-1-20,52.3,13.8,48.0,20.0,-67.4,-99.9,33,8,27,26.20,26.14,17,-724,25,0.00
2014-1-21,40.2,12.2,22.7,27.0,-53.5,-99.9,91,27,56,26.14,25.91,18,-624,28,0.01
2014-1-22,21.8,4.9,3.5,2.0,-67.4,-99.9,75,15,30,26.22,26.03,13,-657,20,0.00
2014-1-23,-200.0,0.0,200.0,-99.9,-99.9,-99.9,0,0,100,26.31,26.21,0,-999,0,0.00